Location: Hawley
(43.2127°N, 93.6797°W)
Time: 08:01:49
(UTC+00:00)

Daily predictions for brighter satellites

Satellite Brightness Start Highest point End
(mag) Time Altitude Azimuth Time Altitude Azimuth Time Altitude Azimuth
SeaSat 1 4.5 12:03:56 10° NNW 12:04:28 11° NNW 12:04:28 11° NNW
Cosmos 2322 Rocket 2.6 12:03:51 25° NW 12:06:34 40° WSW 12:11:48 10° S
Helios 1A Rocket 2.4 12:04:37 10° S 12:07:53 55° WSW 12:09:23 28° NW
Cosmos 1484 Rocket 2.4 12:04:40 10° NNE 12:08:04 85° ESE 12:11:24 10° SSW
IRS-1D 4.1 12:13:11 10° N 12:17:39 33° WNW 12:22:11 10° SW
Cosmos 1812 Rocket 3.4 12:15:20 10° N 12:19:41 84° W 12:24:02 10° S
BREEZE M DEB (TANK) 1.7 12:19:32 31° W 12:20:32 59° NNW 12:24:36 10° ENE
BREEZE-M DEB (TANK) 3.6 12:20:52 23° NW 12:22:15 35° N 12:27:58 10° ENE
Cosmos 2221 2.3 12:18:19 10° NNW 12:22:28 75° W 12:26:34 10° S
Cosmos 1602 Rocket 3.5 12:18:31 10° SSW 12:22:56 68° W 12:27:22 10° N
Cosmos 2322 4.2 12:17:47 10° NNW 12:23:25 61° ENE 12:29:00 10° SE
Cosmos 1437 Rocket 2.3 12:22:23 10° NNW 12:25:52 84° W 12:29:21 10° S
Cosmos 2285 Rocket 4.5 12:24:15 10° NNW 12:30:11 41° W 12:36:06 10° S
Cosmos 1842 3.3 12:29:07 10° N 12:32:25 63° E 12:35:41 10° SSE
Okean 1-7 Rocket 3.5 12:30:09 10° SSW 12:34:38 75° W 12:39:06 10° N
SL-4 R/B 2.7 12:33:59 17° W 12:35:38 25° SW 12:38:19 10° SSE
ATLAS 2AS CENTAUR R/B 2.8 12:29:04 10° SW 12:35:58 56° NW 12:42:44 10° NNE
SL-16 R/B 3.9 12:36:15 12° W 12:36:45 12° W 12:38:51 10° WSW
Meteor 1-19 Rocket 4.3 12:31:32 10° NNW 12:37:24 75° W 12:43:22 10° S
Meteor 1-10 Rocket 4.3 12:33:06 10° NNW 12:39:02 79° W 12:44:57 10° S
IGS 5A 3.5 12:35:41 10° N 12:39:33 48° WNW 12:43:24 10° SSW
ARIANE 5 R/B 3.4 12:35:17 10° NNE 12:40:26 56° E 12:45:32 10° S
CORIOLIS 4.2 12:39:15 10° NNE 12:44:40 87° ESE 12:50:05 10° SSW
Cosmos 2315 Rocket 4.1 12:39:25 10° N 12:45:48 87° E 12:52:05 10° S
KORONAS-FOTON 3.6 12:42:49 10° NNW 12:46:07 50° W 12:49:23 10° S
Cosmos 1743 3.6 12:43:41 10° SW 12:46:10 20° WNW 12:48:39 10° NNW
SOZ 3.8 12:44:48 10° WSW 12:47:34 84° NNW 12:50:02 10° NE
Cosmos 1953 Rocket 4.1 12:43:49 10° S 12:48:05 62° E 12:52:25 10° NNE
COSMOS 2428 2.8 12:43:57 10° NNW 12:49:41 84° ENE 12:55:24 10° SSE
COSMO-SKYMED 1 4.0 12:47:59 10° SW 12:50:47 18° W 12:53:36 10° NW
S3M 4.0 12:47:11 10° NNW 12:53:16 63° W 12:59:16 10° S
Cosmos 1825 Rocket 3.6 12:50:58 10° SSW 12:55:21 62° W 12:59:43 10° N
USA 234 4.5 12:50:07 10° ENE 12:55:30 28° N 13:00:52 10° NW
Cosmos 1076 Rocket 3.5 12:53:31 10° S 12:57:44 88° E 13:01:59 10° N
CBERS-1 4.3 12:54:21 10° N 12:59:11 45° WNW 13:04:00 10° SW
Cosmos 1655 Rocket 4.1 12:53:17 10° S 12:59:38 89° W 13:05:59 10° N
ARIANE 6 FM1 Upper Stage 2.5 12:56:36 10° SW 13:00:39 75° NW 13:04:38 10° NE
Cosmos 773 Rocket 3.9 12:55:45 10° SSW 13:00:49 67° WNW 13:05:58 10° NNE
Cosmos 2150 Rocket 4.2 12:56:25 10° NNW 13:01:53 82° ENE 13:07:15 10° SSE
Cosmos 1707 3.3 13:02:28 10° NW 13:05:06 25° W 13:07:42 10° SSW
Cosmos 1570 Rocket 4.3 13:01:06 10° SW 13:06:09 45° WNW 13:11:17 10° N
AQUARIUS 4.1 13:06:32 10° N 13:10:59 83° WNW 13:15:23 10° SSW
Thor Agena Rocket 3.7 23:03:10 10° SE 23:08:11 52° ENE 23:13:10 10° N
Cosmos 1354 Rocket 4.0 23:03:55 10° SSW 23:09:11 84° ESE 23:14:27 10° NNE
Cosmos 1697 Rocket 2.8 23:04:52 10° SSW 23:10:29 89° WNW 23:16:08 10° NNE
BREEZE-M DEB (TANK) 3.9 23:11:59 10° WNW 23:14:52 39° NNE 23:22:34 10° E
Cosmos 1898 Rocket 4.5 23:10:43 10° SSE 23:14:58 27° E 23:19:16 10° NE
NOSS 2-3 (D) 3.1 23:13:53 10° SW 23:17:36 89° WNW 23:21:24 10° NE
NOSS 2-3 (E) 3.2 23:15:25 10° SW 23:19:06 79° NW 23:22:51 10° NE
SL-16 R/B 2.8 23:17:34 10° NNE 23:23:47 73° WNW 23:29:56 10° SSW
IGS 5A 3.5 23:21:37 10° S 23:25:33 80° WSW 23:29:33 10° NNW
IRIDIUM 104 4.4 23:22:18 10° N 23:27:33 90° WNW 23:32:46 10° S
Cosmos 1937 Rocket 4.5 23:24:14 10° SSE 23:28:29 26° E 23:32:41 10° NE
Cosmos 990 Rocket 4.2 23:25:06 10° SSW 23:30:13 75° WNW 23:35:24 10° NNE
Cosmos 2058 Rocket 3.9 23:26:28 10° SSE 23:30:20 30° E 23:34:14 10° NNE
Cosmos 1606 Rocket 3.6 23:29:06 10° S 23:33:31 87° W 23:37:59 10° N
USA 238 DEB 3.5 23:28:19 10° SSW 23:34:20 78° ESE 23:40:56 10° NE
USA 238 3.5 23:28:26 10° SSW 23:34:27 77° ESE 23:41:04 10° NE
Cosmos 2151 4.1 23:32:41 10° NNW 23:36:41 46° W 23:40:40 10° SSW
Cosmos-2242 3.7 23:34:06 10° SSE 23:37:51 31° E 23:41:36 10° NNE
CZ-2D R/B 3.0 23:34:55 10° SSE 23:37:55 44° ENE 23:40:57 10° N
Meteor 1-28 Rocket 4.1 23:35:47 10° N 23:38:58 43° WNW 23:42:08 10° SW
USA 215 4.5 23:36:57 10° NE 23:42:17 27° N 23:47:36 10° WNW
GEOS 3 Rocket 3.7 23:38:11 10° NE 23:43:36 79° SE 23:48:58 10° SSW
SAR-Lupe-4 3.4 23:45:35 10° SSE 23:49:06 69° ENE 23:52:38 10° N
Gbstr 26 Del rocket 3.9 23:46:50 10° W 23:50:34 32° NNW 23:53:00 16° NE
Aureole 1 Rocket 3.4 23:47:30 10° SSW 23:51:59 82° ESE 23:57:45 10° NNE
Cosmos 2082 4.0 23:47:13 10° NNW 23:52:40 43° ENE 23:58:05 10° SE
Cosmos 1726 Rocket 4.0 23:50:34 10° SSW 23:55:10 71° W 23:59:45 10° N
CZ-2D R/B 4.2 23:52:21 10° SE 23:55:58 30° ENE 23:59:34 10° N
